When you browse on this site, cookies collect data to enhance your experience and personalize the content and advertising you see.
Visit our Privacy Policy to learn more. By continuing to use the site, you agree to this use of cookies and data.

Previsão horária em Yucy

Hoje, 13 Agosto, Quinta-feira

Tempo Temperatura Precipitação Vento Pressão Humidade
00:00 +11°C° 0 mm 1 m/s 757 mmHg 81%
01:00 +9°C° 0 mm 0 m/s 757 mmHg 84%
02:00 +9°C° 0 mm 0 m/s 758 mmHg 87%
03:00 +9°C° 0 mm 0 m/s 757 mmHg 86%
04:00 +9°C° 0 mm 0 m/s 757 mmHg 84%
05:00 +9°C° 0 mm 0 m/s 757 mmHg 83%
06:00 +10°C° 0 mm 0 m/s 757 mmHg 79%
07:00 +13°C° 0 mm 1 m/s 757 mmHg 75%
08:00 +14°C° 0 mm 1 m/s 757 mmHg 71%
09:00 +15°C° 0 mm 1 m/s 757 mmHg 68%
10:00 +16°C° 0 mm 1 m/s 757 mmHg 66%
11:00 +18°C° 0 mm 1 m/s 757 mmHg 63%
12:00 +19°C° 0.1 mm 1 m/s 756 mmHg 64%
13:00 +19°C° 0.1 mm 1 m/s 756 mmHg 64%
14:00 +17°C° 0.1 mm 0 m/s 756 mmHg 65%
15:00 +19°C° 0.1 mm 1 m/s 756 mmHg 65%
16:00 +19°C° 0.1 mm 1 m/s 756 mmHg 65%
17:00 +19°C° 0.1 mm 1 m/s 756 mmHg 66%
18:00 +16°C° 0 mm 1 m/s 756 mmHg 72%
19:00 +14°C° 0 mm 0 m/s 756 mmHg 78%
20:00 +12°C° 0 mm 0 m/s 756 mmHg 84%
21:00 +12°C° 0 mm 0 m/s 756 mmHg 84%
22:00 +12°C° 0 mm 0 m/s 756 mmHg 84%
23:00 +13°C° 0 mm 1 m/s 756 mmHg 83%

Amanhã, 14 Agosto, Sexta-feira

Tempo Temperatura Precipitação Vento Pressão Humidade
00:00 +12°C° 0 mm 1 m/s 756 mmHg 84%
01:00 +12°C° 0 mm 1 m/s 756 mmHg 84%
02:00 +12°C° 0 mm 1 m/s 756 mmHg 84%
03:00 +12°C° 0 mm 1 m/s 756 mmHg 85%
04:00 +12°C° 0 mm 1 m/s 756 mmHg 86%
05:00 +12°C° 0 mm 1 m/s 756 mmHg 87%
06:00 +13°C° 0 mm 1 m/s 756 mmHg 81%
07:00 +15°C° 0 mm 1 m/s 756 mmHg 76%
08:00 +18°C° 0 mm 1 m/s 756 mmHg 71%
09:00 +19°C° 0 mm 1 m/s 756 mmHg 67%
10:00 +20°C° 0 mm 1 m/s 756 mmHg 62%
11:00 +20°C° 0 mm 2 m/s 756 mmHg 58%
12:00 +20°C° 0 mm 2 m/s 756 mmHg 58%
13:00 +21°C° 0 mm 2 m/s 756 mmHg 58%
14:00 +21°C° 0 mm 2 m/s 755 mmHg 57%
15:00 +21°C° 0 mm 2 m/s 755 mmHg 59%
16:00 +21°C° 0 mm 2 m/s 755 mmHg 60%
17:00 +21°C° 0 mm 2 m/s 755 mmHg 61%
18:00 +20°C° 0 mm 1 m/s 755 mmHg 69%
19:00 +18°C° 0 mm 1 m/s 755 mmHg 77%
20:00 +16°C° 0 mm 1 m/s 755 mmHg 86%
21:00 +15°C° 0 mm 1 m/s 755 mmHg 88%
22:00 +15°C° 0 mm 2 m/s 755 mmHg 91%
23:00 +14°C° 0 mm 2 m/s 755 mmHg 94%

Depois de amanhã, 15 Agosto, Sábado

Tempo Temperatura Precipitação Vento Pressão Humidade
00:00 +14°C° 0 mm 2 m/s 755 mmHg 95%
01:00 +13°C° 0 mm 2 m/s 755 mmHg 96%
02:00 +13°C° 0 mm 2 m/s 755 mmHg 97%
03:00 +13°C° 0 mm 2 m/s 755 mmHg 97%
04:00 +13°C° 0 mm 1 m/s 755 mmHg 97%
05:00 +13°C° 0 mm 1 m/s 755 mmHg 97%
06:00 +14°C° 0 mm 1 m/s 755 mmHg 92%
07:00 +16°C° 0 mm 1 m/s 755 mmHg 86%
08:00 +19°C° 0 mm 1 m/s 755 mmHg 81%
09:00 +19°C° 0 mm 2 m/s 755 mmHg 74%
10:00 +21°C° 0 mm 2 m/s 755 mmHg 66%
11:00 +24°C° 0 mm 2 m/s 755 mmHg 59%
12:00 +24°C° 0.1 mm 2 m/s 755 mmHg 59%
13:00 +24°C° 0.1 mm 3 m/s 755 mmHg 60%
14:00 +25°C° 0.1 mm 3 m/s 755 mmHg 60%
15:00 +24°C° 0.4 mm 3 m/s 754 mmHg 66%
16:00 +24°C° 0.4 mm 2 m/s 754 mmHg 72%
17:00 +23°C° 0.4 mm 2 m/s 754 mmHg 79%
18:00 +21°C° 0.1 mm 2 m/s 754 mmHg 82%
19:00 +19°C° 0.1 mm 2 m/s 754 mmHg 86%
20:00 +19°C° 0.1 mm 1 m/s 754 mmHg 90%
21:00 +18°C° 0 mm 1 m/s 754 mmHg 90%
22:00 +16°C° 0 mm 2 m/s 754 mmHg 90%
23:00 +16°C° 0 mm 2 m/s 754 mmHg 90%

16 Agosto, Domingo

Tempo Temperatura Precipitação Vento Pressão Humidade
00:00 +15°C° 0 mm 2 m/s 754 mmHg 93%
01:00 +15°C° 0 mm 2 m/s 754 mmHg 95%
02:00 +15°C° 0 mm 2 m/s 754 mmHg 97%
03:00 +15°C° 0 mm 2 m/s 754 mmHg 97%
04:00 +14°C° 0 mm 2 m/s 754 mmHg 97%
05:00 +14°C° 0 mm 2 m/s 754 mmHg 97%
06:00 +16°C° 0 mm 2 m/s 754 mmHg 92%
07:00 +18°C° 0 mm 2 m/s 754 mmHg 86%
08:00 +19°C° 0 mm 2 m/s 754 mmHg 81%
09:00 +21°C° 0 mm 2 m/s 754 mmHg 72%
10:00 +24°C° 0 mm 2 m/s 754 mmHg 63%
11:00 +26°C° 0 mm 3 m/s 754 mmHg 55%
12:00 +27°C° 0 mm 3 m/s 754 mmHg 53%
13:00 +27°C° 0 mm 3 m/s 754 mmHg 51%
14:00 +28°C° 0 mm 3 m/s 753 mmHg 49%
15:00 +27°C° 0 mm 3 m/s 753 mmHg 55%
16:00 +26°C° 0 mm 2 m/s 753 mmHg 61%
17:00 +25°C° 0 mm 2 m/s 753 mmHg 67%
18:00 +24°C° 0 mm 2 m/s 753 mmHg 71%
19:00 +21°C° 0 mm 2 m/s 753 mmHg 75%
20:00 +20°C° 0 mm 2 m/s 753 mmHg 78%
21:00 +19°C° 0 mm 2 m/s 753 mmHg 80%
22:00 +18°C° 0 mm 2 m/s 753 mmHg 81%
23:00 +17°C° 0 mm 2 m/s 753 mmHg 82%

17 Agosto, Segunda-feira

Tempo Temperatura Precipitação Vento Pressão Humidade
00:00 +17°C° 0 mm 2 m/s 753 mmHg 85%
01:00 +16°C° 0 mm 2 m/s 753 mmHg 88%
02:00 +15°C° 0 mm 2 m/s 752 mmHg 91%
03:00 +15°C° 0 mm 2 m/s 752 mmHg 93%
04:00 +15°C° 0 mm 2 m/s 752 mmHg 95%
05:00 +14°C° 0 mm 2 m/s 752 mmHg 96%
06:00 +16°C° 0 mm 2 m/s 752 mmHg 90%
07:00 +18°C° 0 mm 2 m/s 752 mmHg 83%
08:00 +20°C° 0 mm 2 m/s 752 mmHg 77%
09:00 +21°C° 0 mm 3 m/s 752 mmHg 70%
10:00 +24°C° 0 mm 3 m/s 752 mmHg 63%
11:00 +25°C° 0 mm 3 m/s 752 mmHg 56%
12:00 +26°C° 0 mm 3 m/s 751 mmHg 53%
13:00 +26°C° 0 mm 3 m/s 751 mmHg 50%
14:00 +27°C° 0 mm 3 m/s 751 mmHg 47%
15:00 +26°C° 0 mm 3 m/s 751 mmHg 48%
16:00 +25°C° 0 mm 3 m/s 751 mmHg 48%
17:00 +24°C° 0 mm 2 m/s 750 mmHg 49%
18:00 +21°C° 0 mm 2 m/s 750 mmHg 54%
19:00 +20°C° 0 mm 1 m/s 750 mmHg 59%
20:00 +16°C° 0 mm 1 m/s 750 mmHg 63%
21:00 +16°C° 0 mm 1 m/s 750 mmHg 65%
22:00 +15°C° 0 mm 1 m/s 750 mmHg 66%
23:00 +15°C° 0 mm 1 m/s 750 mmHg 68%

18 Agosto, Terça-feira

Tempo Temperatura Precipitação Vento Pressão Humidade
00:00 +14°C° 0 mm 1 m/s 750 mmHg 69%
01:00 +14°C° 0 mm 1 m/s 749 mmHg 70%
02:00 +14°C° 0 mm 1 m/s 749 mmHg 70%
03:00 +14°C° 0 mm 1 m/s 749 mmHg 71%
04:00 +13°C° 0 mm 1 m/s 749 mmHg 72%
05:00 +13°C° 0 mm 1 m/s 748 mmHg 73%
06:00 +15°C° 0 mm 1 m/s 748 mmHg 69%
07:00 +18°C° 0 mm 1 m/s 748 mmHg 64%
08:00 +20°C° 0 mm 1 m/s 748 mmHg 59%
09:00 +22°C° 0 mm 1 m/s 747 mmHg 55%
10:00 +24°C° 0 mm 1 m/s 747 mmHg 51%
11:00 +26°C° 0 mm 1 m/s 747 mmHg 48%
12:00 +26°C° 0 mm 1 m/s 747 mmHg 47%
13:00 +27°C° 0 mm 1 m/s 746 mmHg 46%
14:00 +27°C° 0 mm 1 m/s 746 mmHg 45%
15:00 +27°C° 0 mm 1 m/s 746 mmHg 48%
16:00 +26°C° 0 mm 2 m/s 746 mmHg 51%
17:00 +26°C° 0 mm 2 m/s 746 mmHg 54%
18:00 +23°C° 0 mm 1 m/s 746 mmHg 65%
19:00 +21°C° 0 mm 1 m/s 746 mmHg 75%
20:00 +19°C° 0 mm 1 m/s 746 mmHg 86%
21:00 +18°C° 0 mm 1 m/s 746 mmHg 88%
22:00 +16°C° 0 mm 1 m/s 746 mmHg 91%
23:00 +16°C° 0 mm 1 m/s 746 mmHg 94%
Mostrar mais